RH
70 68 56 46 42 36 22 14 11 10 9 8 8 9 9 5 2 2 2 2 3 3 4 4 4 4 5 6 7 7 6 6 5 5 5 5 5 4 4 3 4 3 3 3 3 2 2
77 67 59 49 46 42 37 26 16 12 11 10 10 10 8 3 2 2 2 2 3 4 5 4 4 4 4 6 8 9 10 10 9 9 9 9 9 8 7 7 6 5 5 5 4 4 3
73 66 64 57 53 52 48 43 32 19 15 12 12 12 10 4 2 2 2 2 3 4 5 5 4 4 5 7 9 12 13 13 13 13 14 14 12 10 9 8 7 6 6 5 4 4 4
76 61 60 56 54 51 52 56 55 50 35 21 16 13 12 8 2 2 2 3 3 4 4 4 4 4 4 6 10 12 14 17 17 18 18 17 14 12 10 9 8 7 5 4 4 4 4
68 69 66 59 60 60 54 50 53 58 56 31 18 14 12 8 4 2 2 2 3 3 4 4 4 6 6 7 10 14 16 21 22 21 20 18 15 13 11 11 8 7 6 5 4 4 5
68 71 72 72 66 60 57 57 56 58 63 52 27 15 12 10 8 6 4 3 3 4 5 4 5 7 7 9 12 18 19 22 23 22 20 17 15 13 12 11 8 8 7 5 4 4 4
63 65 65 63 58 60 56 56 60 56 61 64 32 22 14 12 10 8 6 4 6 6 6 6 6 8 11 15 18 20 23 22 22 21 19 18 18 16 14 13 11 9 8 6 5 4 4
67 68 68 66 64 64 62 63 65 65 66 71 53 28 18 12 11 10 8 6 5 6 7 8 10 13 17 20 20 22 23 24 23 22 19 19 20 18 17 15 14 12 9 6 5 6 7
70 72 71 71 67 63 64 71 72 67 67 62 43 28 18 13 11 10 8 7 8 10 11 12 14 17 20 21 22 22 24 24 21 20 19 18 18 18 16 15 18 15 15 14 13 9 10
70 72 73 64 63 61 61 64 78 73 74 63 35 23 15 12 10 9 10 12 12 12 14 16 18 20 22 21 21 23 22 23 22 20 19 19 18 17 14 13 14 9 12 14 13 13 12
73 82 67 55 55 52 51 56 61 59 60 50 35 17 11 11 12 14 14 14 14 15 18 19 20 22 23 27 28 27 26 25 26 25 23 20 17 16 16 14 14 11 11 11 11 12 12
83 72 58 56 55 49 32 24 25 27 24 16 11 11 12 14 15 15 15 15 16 20 24 26 25 27 30 30 31 29 29 30 29 24 20 20 21 17 12 11 10 9 8 7 8 9 10
76 63 58 54 50 46 23 22 22 17 17 14 13 14 15 16 16 18 18 18 23 27 28 27 33 35 35 32 29 29 28 28 25 22 22 18 17 12 10 8 8 9 8 6 6 7 8
68 60 64 45 27 23 23 27 26 20 14 13 13 12 15 18 20 19 20 28 32 30 35 40 40 34 31 30 29 27 27 28 30 28 21 14 9 9 15 14 8 11 16 24 28 52 10
64 65 58 38 29 27 26 26 24 17 11 10 12 15 18 18 20 29 34 32 35 42 39 36 34 31 29 28 26 24 30 36 29 20 13 9 7 12 29 31 22 21 22 32 58 28 88
63 69 53 41 34 30 30 28 19 12 8 10 14 20 30 36 36 35 37 46 44 39 35 31 28 26 27 27 33 44 38 27 19 12 11 15 12 28 36 39 34 29 26 29 98 90 100
71 70 57 43 35 32 37 22 19 21 37 48 45 41 35 34 38 46 46 42 38 34 27 22 20 25 34 45 47 40 27 16 12 13 15 26 32 40 58 50 34 39 38 45 72 100 98
76 67 50 38 32 32 30 38 48 49 44 39 38 36 42 47 49 45 42 39 32 23 17 16 24 38 50 49 37 24 16 13 13 19 29 58 76 81 60 57 47 48 55 68 100 100 100
68 56 38 30 26 54 57 51 44 38 38 38 41 44 50 50 47 45 38 28 19 12 13 21 43 51 47 33 24 16 14 18 22 29 48 81 88 89 56 72 70 69 82 93 100 100 100
61 40 28 31 64 54 50 45 41 39 38 40 41 44 46 48 46 37 26 14 11 11 24 48 54 45 32 24 20 15 20 25 39 48 71 99 95 76 52 49 56 52 58 84 100 100 99
42 36 52 70 52 56 49 45 43 40 39 40 44 46 47 46 34 22 13 10 13 40 46 59 44 31 24 23 23 31 32 34 58 59 83 94 77 57 63 83 68 55 52 78 100 100 100
43 72 69 58 60 52 48 50 50 48 47 49 51 53 45 32 18 9 10 24 50 62 55 40 30 24 22 41 37 47 47 45 58 83 95 93 70 58 77 87 78 62 58 81 100 100 100
74 71 66 62 52 50 54 55 58 57 58 58 52 39 27 21 10 7 15 39 54 48 38 27 21 20 47 61 70 80 51 46 63 93 99 97 67 68 77 91 82 67 82 81 100 100 100
75 64 59 55 56 59 60 62 63 66 59 51 31 18 11 9 8 33 52 52 46 34 22 19 22 34 82 66 85 86 62 61 75 99 100 87 78 84 99 99 87 70 82 99 93 100 100
60 63 66 62 67 66 65 67 65 63 44 36 11 7 7 13 45 58 51 38 24 20 18 18 30 77 100 82 95 87 81 72 88 100 100 92 89 97 97 100 93 85 68 71 100 100 100
66 70 73 75 72 69 70 72 68 45 24 14 8 12 41 56 50 40 27 24 20 17 17 22 58 98 100 100 100 93 80 79 96 91 100 100 98 100 100 100 100 95 93 84 61 88 100
74 77 78 78 74 74 76 69 50 19 12 7 19 50 70 54 35 29 26 21 17 19 23 40 69 83 100 100 100 96 91 87 97 100 100 100 100 100 100 100 92 91 93 82 77 56 62
77 82 83 77 73 72 64 43 20 6 8 24 60 62 44 36 31 25 20 15 16 20 29 37 50 90 100 100 100 100 91 94 100 100 100 100 100 100 100 100 99 92 85 75 75 62 54
78 77 74 69 64 58 36 12 6 11 43 63 51 41 36 31 26 20 15 18 22 26 39 59 90 100 100 100 100 100 96 100 100 100 100 100 100 100 100 100 94 94 79 68 67 64 60
Wind_Speed
13 16 16 14 13 14 14 14 16 18 19 20 21 21 21 22 21 21 21 22 24 25 25 26 28 30 31 31 32 33 34 35 36 37 38 41 43 46 46 48 49 51 49 51 49 47 46
14 14 15 14 14 14 15 17 19 22 23 24 24 24 24 25 25 26 27 27 27 28 29 31 33 35 37 37 37 38 39 40 41 44 45 47 49 51 53 53 56 57 57 57 57 56 54
14 15 15 15 14 15 18 19 21 24 27 28 28 27 29 29 29 30 31 33 34 33 35 36 38 40 42 43 43 43 45 47 48 49 51 53 54 55 57 59 61 62 65 64 64 64 64
15 14 17 15 17 19 24 26 27 28 29 31 32 32 31 32 33 34 35 36 38 39 41 42 44 46 48 48 48 50 53 55 55 56 55 56 59 60 63 65 67 70 72 72 68 69 72
16 18 19 18 21 26 27 26 26 29 32 33 34 34 33 34 35 36 38 39 42 43 45 47 49 49 53 54 56 57 59 58 59 60 63 65 66 66 68 70 74 75 78 79 78 78 80
19 21 23 24 29 32 33 32 33 32 34 35 36 36 36 36 38 40 41 43 45 47 48 51 53 54 57 58 61 61 63 63 66 66 66 68 71 73 75 78 80 80 84 83 83 81 88
20 22 24 28 29 34 34 33 35 35 36 36 36 37 38 38 40 42 44 47 49 50 51 53 56 58 59 62 64 66 71 70 67 68 71 74 78 80 83 84 86 88 90 92 89 89 93
21 25 28 31 34 35 38 39 39 38 38 37 37 38 38 40 42 45 47 50 52 54 56 58 58 60 62 66 71 71 68 70 73 75 78 81 84 85 85 86 87 86 86 86 82 78 78
26 29 32 37 40 42 43 44 42 39 37 38 38 39 40 41 45 48 50 52 53 55 58 60 62 65 71 73 71 71 73 75 78 83 86 87 89 90 88 81 76 74 75 73 73 67 67
30 34 39 41 41 43 43 42 38 36 38 38 39 40 43 46 48 51 53 54 57 60 63 67 71 73 74 75 76 76 78 83 87 89 90 92 90 86 80 77 77 76 71 68 68 63 65
37 39 42 42 40 36 31 31 30 31 33 36 40 44 45 48 53 55 55 58 60 63 68 74 76 75 74 75 76 81 85 89 89 89 89 84 80 75 73 72 73 70 68 66 62 63 60
41 42 43 40 36 28 29 29 31 33 36 41 45 46 49 53 54 56 59 62 64 67 77 75 75 74 73 76 81 87 88 87 86 84 80 74 71 71 70 69 68 67 66 64 62 61 66
42 45 42 37 32 32 32 33 36 40 43 44 47 50 52 54 57 60 63 66 68 70 73 73 73 74 79 83 87 88 86 82 78 74 71 68 62 64 62 61 54 51 52 51 49 54 64
45 45 39 34 33 34 34 37 41 44 46 48 51 53 55 57 60 63 65 69 70 70 69 71 75 80 84 85 86 83 77 72 69 69 66 64 56 52 47 44 48 37 35 36 36 33 43
47 42 37 36 36 38 39 42 45 48 49 51 54 56 57 60 62 65 66 67 67 67 72 77 82 84 84 84 80 76 69 66 66 64 60 56 46 37 35 33 35 35 28 33 39 34 28
46 40 39 39 40 41 44 47 49 51 53 54 56 59 60 63 64 63 63 64 69 73 78 80 82 83 79 74 68 65 62 61 60 57 53 43 39 28 25 27 29 34 26 25 31 32 35
43 42 42 41 42 44 48 51 53 55 56 58 61 62 62 61 60 61 65 70 74 77 80 80 79 75 68 64 60 60 59 56 51 47 39 32 31 23 21 26 26 23 22 22 30 28 33
44 43 43 44 46 49 52 54 57 58 58 60 61 61 59 59 62 66 71 74 77 79 78 76 70 64 60 59 57 56 54 48 43 34 28 24 26 23 20 22 23 19 18 22 24 31 37
44 44 44 47 50 55 55 56 57 59 60 58 56 56 59 63 68 72 75 77 77 77 73 69 61 58 56 56 56 54 47 37 31 26 22 19 21 23 20 23 22 19 17 22 26 30 34
46 46 48 51 55 55 56 57 60 60 59 59 59 61 65 69 72 75 76 75 75 71 65 58 54 54 56 54 52 49 37 30 24 21 19 20 21 22 23 23 16 15 19 18 21 22 25
47 50 54 55 56 56 59 61 61 62 62 62 64 66 69 74 75 76 75 72 68 60 57 52 52 54 53 50 45 37 33 25 22 18 18 19 19 17 18 17 16 16 14 14 17 17 20
51 55 56 58 58 58 60 62 63 65 66 66 68 70 72 75 75 73 69 62 53 52 51 50 52 52 50 41 36 30 28 22 17 19 18 18 16 15 13 14 16 16 13 12 17 16 22
55 58 59 59 59 62 64 65 66 68 67 69 72 74 76 79 75 71 62 54 50 50 51 53 53 51 40 37 27 27 25 20 16 17 18 17 16 13 12 14 14 13 13 9 14 15 21
57 60 60 60 62 64 66 68 69 68 71 73 74 77 77 74 67 57 51 48 49 52 55 53 49 42 35 34 23 22 22 18 16 16 17 15 14 12 13 11 9 9 9 8 8 14 14
59 60 60 62 65 68 70 72 72 72 75 77 75 71 67 64 54 49 49 51 52 54 52 48 39 32 32 31 21 19 19 15 15 14 15 14 14 13 13 10 9 8 8 9 8 8 14
63 65 66 68 70 72 73 74 75 78 80 79 67 61 54 52 47 48 51 54 54 51 47 39 32 29 32 25 19 20 19 15 15 13 14 14 14 15 13 14 14 12 10 12 12 10 12
66 69 71 73 74 75 76 78 81 80 78 70 55 50 48 50 51 53 54 54 51 45 38 29 29 27 24 19 20 22 18 16 15 16 15 14 15 17 18 18 16 16 20 18 17 13 12
70 71 71 74 76 78 81 83 87 80 65 55 46 46 49 51 54 54 55 51 45 39 32 27 24 18 17 20 22 22 19 17 16 15 19 17 14 17 20 24 24 21 19 17 16 14 13
69 71 74 78 80 84 88 87 76 62 49 46 46 49 52 54 56 55 49 43 37 31 26 21 13 16 23 23 24 22 23 16 16 17 18 20 25 28 28 29 28 23 18 16 15 16 16
Wind_Direction
311 317 324 327 330 327 316 303 297 295 293 293 293 293 289 284 274 272 273 274 276 278 280 288 293 295 297 300 302 303 301 297 293 291 290 288 286 284 282 283 283 281 279 278 276 272 270
303 311 316 316 324 316 313 309 303 298 295 293 291 290 285 280 276 274 274 275 275 276 280 287 292 295 297 300 299 300 297 294 293 292 291 290 289 288 287 285 283 281 279 278 275 273 270
296 305 300 307 306 320 320 311 304 298 294 290 289 286 284 280 276 277 278 278 278 280 283 288 293 295 298 299 299 299 296 293 292 291 291 290 290 289 287 285 282 281 280 278 276 274 273
297 302 307 306 299 302 313 308 302 297 290 288 286 283 281 282 278 276 278 280 282 283 285 289 294 296 297 298 299 298 298 297 295 291 290 291 291 290 290 288 287 285 282 280 277 274 272
288 300 306 300 301 301 301 304 302 296 290 286 283 281 282 283 281 281 282 283 284 285 287 290 293 296 297 299 299 299 297 299 296 294 293 292 292 292 290 290 285 282 280 278 276 275 273
300 298 295 291 295 299 294 291 292 296 295 285 283 282 283 284 286 287 288 288 287 288 290 293 296 298 297 297 299 299 298 296 297 295 293 292 292 292 291 288 286 283 281 277 275 273 273
302 298 296 296 295 295 295 293 291 293 292 288 284 283 285 288 289 290 291 291 290 291 294 295 297 298 297 298 298 298 297 297 296 295 295 295 296 296 292 291 288 286 284 284 281 277 272
311 306 304 302 301 297 298 292 292 290 292 289 287 287 287 288 291 290 290 289 291 292 293 293 296 297 298 298 299 299 300 299 298 298 296 297 296 294 292 291 289 287 284 283 277 272 267
307 306 306 307 304 301 296 294 293 293 293 292 289 288 288 291 293 294 293 292 293 293 295 296 297 298 299 301 301 302 301 301 300 299 298 296 295 294 292 289 283 280 280 277 274 267 261
305 306 310 310 302 299 299 296 291 292 292 291 291 293 294 295 295 295 296 296 297 299 298 298 301 302 303 303 303 303 303 301 300 299 297 296 296 293 290 287 283 280 275 271 268 263 259
309 307 311 311 312 309 306 304 296 296 296 293 293 295 296 296 298 298 298 298 299 300 301 303 303 303 304 304 303 303 302 300 299 298 298 297 294 292 290 287 282 280 275 270 263 261 257
305 313 317 315 312 306 305 303 302 299 297 297 297 298 298 297 298 298 299 300 301 302 303 304 304 303 303 302 302 302 301 299 299 298 297 296 295 294 291 286 282 278 273 267 262 257 250
312 317 317 311 304 298 302 304 303 301 302 301 301 301 301 300 300 301 302 302 302 302 303 303 304 304 303 303 301 301 301 301 300 300 298 297 297 293 287 284 282 280 278 272 260 251 251
317 316 310 305 301 301 301 302 305 306 304 303 303 303 303 302 302 303 304 303 303 303 304 305 304 304 303 303 301 302 302 302 302 301 300 300 300 292 286 284 284 276 273 269 264 252 246
316 311 304 301 300 301 302 306 307 307 305 304 304 304 303 304 304 304 304 304 305 305 306 306 305 303 302 302 303 304 305 305 303 303 302 300 299 289 289 290 286 282 270 255 252 242 234
313 306 303 302 302 305 308 309 310 309 307 307 305 305 306 306 305 306 306 307 306 307 307 306 304 304 304 304 305 305 307 305 304 302 301 299 297 292 287 287 288 287 280 256 238 243 215
308 304 303 303 305 308 310 310 310 309 308 307 307 308 308 307 307 308 308 308 308 307 306 304 304 303 304 305 306 306 307 306 303 299 300 298 297 299 299 296 290 280 275 259 233 227 225
306 304 304 306 309 309 308 308 308 309 310 309 310 310 310 310 309 309 308 308 308 306 305 304 304 304 305 305 306 307 308 306 303 300 297 290 295 302 302 301 301 289 265 244 239 226 227
303 303 307 309 308 307 309 310 309 311 310 310 311 310 310 309 310 310 310 308 307 305 304 304 306 305 306 307 308 310 310 305 300 300 293 285 289 296 305 301 297 291 276 239 241 233 230
304 307 308 306 307 310 311 310 311 312 310 311 310 310 309 309 310 309 308 307 305 305 303 305 307 307 308 309 309 312 311 305 296 292 281 283 287 288 296 301 296 282 274 255 244 234 234
306 308 307 309 312 312 310 313 313 312 312 310 310 310 309 311 311 310 308 306 306 304 305 307 307 307 308 309 309 309 307 303 292 285 277 280 287 291 292 291 302 306 291 249 234 231 231
306 307 308 311 311 312 313 315 314 312 311 310 310 310 311 312 312 309 306 307 305 304 309 307 308 308 309 308 309 305 305 295 283 279 277 280 285 290 286 290 300 305 302 249 219 220 224
306 307 312 312 313 314 315 314 313 311 311 313 313 314 314 314 312 308 307 306 308 307 309 309 308 307 305 312 303 302 308 291 279 275 275 277 280 282 287 291 300 309 305 281 233 217 216
307 310 311 312 313 313 312 312 313 315 316 317 316 314 313 313 309 309 309 309 309 308 308 306 304 302 302 309 293 302 307 287 277 270 269 269 268 276 285 282 300 319 317 297 262 231 212
307 308 311 312 311 312 312 315 318 318 318 318 316 312 311 310 310 311 310 309 309 307 306 304 300 294 297 303 286 297 308 290 275 267 266 262 256 261 262 263 290 311 329 317 289 244 241
307 308 310 309 310 312 315 318 319 320 319 320 315 311 308 310 311 310 310 309 307 305 304 302 295 289 292 289 289 305 307 294 281 270 263 256 249 255 246 250 265 282 300 311 311 278 245
307 307 307 309 312 315 317 319 321 321 320 318 313 311 310 310 312 312 310 308 305 303 301 293 283 281 282 281 293 305 302 291 264 259 261 255 254 250 253 260 265 277 296 291 280 273 271
306 307 309 311 314 317 320 322 322 322 317 316 315 310 310 311 311 310 309 306 303 301 298 294 288 281 277 288 294 304 298 287 265 253 242 241 241 245 258 263 276 290 292 284 275 268 255
309 310 312 315 319 321 322 323 321 319 317 316 314 313 313 313 311 311 307 304 301 299 293 290 278 266 278 286 299 296 296 271 252 253 250 246 243 248 254 266 275 280 281 280 274 265 254